[[{"header":{"parameterUnit":"m.s-1","parameterCategory":1,"la1":30.2991,"la2":30.254,"lo1":-89.0895,"lo2":-89.0444,"dy":0.0017,"dx":0.0017,"nx":28,"ny":28,"refTime":"2024-08-10T15:00:00:Z","depth":0,"parameterNumber":2,"parameterNumberName":"U-component_of_WINDS"},"data":[0,0,0,0,0,0,0,0,0,0,0,0,0,0,0,0,0,0,0,0,0,0,0,0,0,0,0,0,0,0,0,0,0,0,0,0,0,0,0,0,0,0,0,0,0,0,0,0,0,0,0,0,0,0,0,0,0,0,-2.2387,-2.2386,0,-2.2348,-2.2348,-2.2347,-2.2263,-2.2261,-2.2259,-2.2258,-2.222,-2.2221,-2.2221,0,0,0,0,0,0,0,0,0,0,0,0,0,-2.2391,-2.2391,-2.2387,-2.2386,-2.2386,-2.2348,-2.2348,-2.2347,-2.2263,-2.2261,-2.2259,-2.2257,-2.222,-2.2221,-2.2221,0,0,0,0,0,0,0,0,0,0,0,0,0,-2.2374,-2.2391,-2.2387,-2.2339,-2.2335,-2.2348,-2.2348,-2.2347,-2.2263,-2.2261,-2.2258,-2.2256,-2.222,-2.2221,-2.2221,-2.2279,0,0,-2.2224,-2.2225,0,0,0,0,0,0,0,0,-2.2375,-2.2374,-2.2347,-2.2343,-2.2337,-2.2307,-2.2335,-2.2324,-2.2264,-2.2291,-2.2258,-2.2255,-2.2251,-2.225,-2.2248,-2.2277,-2.2275,-2.2224,-2.2225,-2.2225,-2.2226,0,0,0,0,0,0,0,-2.2377,-2.2376,-2.2371,-2.2347,-2.2341,-2.2321,-2.2316,-2.2333,-2.2286,-2.2288,-2.2282,-2.2278,-2.2248,-2.2247,-2.2247,-2.2275,-2.2224,-2.2225,-2.2226,-2.2226,-2.235,-2.2353,0,0,0,0,0,0,-2.2384,-2.2377,-2.2373,-2.237,-2.235,-2.2323,-2.2317,-2.232,-2.2286,-2.2278,-2.2281,-2.2274,-2.2247,-2.2246,-2.2245,-2.2311,-2.2225,-2.2226,-2.2227,-2.2348,-2.2351,-2.2354,0,0,0,0,0,0,-2.2385,-2.2385,-2.2374,-2.2372,-2.2369,-2.2325,-2.2329,-2.232,-2.2319,-2.228,-2.2271,-2.2288,-2.2245,-2.2244,-2.2271,-2.2308,-2.2227,-2.2227,-2.2344,-2.2349,-2.2352,-2.2442,0,0,0,0,0,0,-2.2385,-2.2385,-2.2406,-2.2373,-2.237,-2.2401,-2.2331,-2.2321,-2.2321,-2.2312,-2.2285,-2.2277,-2.2243,-2.227,-2.2272,-2.2308,-2.2228,-2.2341,-2.2346,-2.2351,-2.2436,-2.2449,-2.246,0,0,0,0,0,-2.2386,-2.2433,-2.2408,-2.2408,-2.2394,-2.2403,-2.2401,-2.236,-2.2324,-2.2345,-2.232,-2.2278,-2.2304,-2.2274,-2.2275,-2.2312,-2.2338,-2.2345,-2.2351,-2.2431,-2.2447,-2.246,0,0,0,0,0,0,-2.2472,-2.2428,-2.2399,-2.2437,-2.2424,-2.2389,-2.2414,-2.2378,-2.2375,-2.2368,-2.2317,-2.2312,-2.2346,-2.2332,-2.2299,-2.2366,-2.2314,-2.2321,-2.2375,-2.239,-2.2402,-2.2405,-2.2229,0,0,0,0,0,-2.2496,-2.2506,-2.2466,-2.2504,-2.2499,-2.2458,-2.246,-2.2429,-2.2414,-2.2409,-2.2385,-2.2373,-2.2378,-2.2383,-2.2385,-2.2433,-2.2427,-2.2459,-2.2471,-2.2482,-2.2488,-2.2514,-2.2528,-2.2374,-2.2374,-2.2374,0,0,-2.2544,-2.2521,-2.2531,-2.2521,-2.2507,-2.252,-2.2454,-2.2469,-2.2478,-2.2411,-2.2436,-2.2419,-2.2402,-2.244,-2.2456,-2.2429,-2.2529,-2.249,-2.2498,-2.2499,-2.2522,-2.2536,-2.2549,-2.2379,-2.2378,-2.2377,0,0,-2.264,-2.2623,-2.2653,-2.264,-2.2621,-2.2593,-2.26,-2.257,-2.2556,-2.258,-2.253,-2.254,-2.255,-2.254,-2.2537,-2.263,-2.2592,-2.2632,-2.2696,-2.2722,-2.2734,-2.2744,-2.2779,-2.2791,-2.2639,-2.2639,-2.2639,0,-2.2703,-2.2719,-2.2673,-2.2692,-2.2689,-2.2628,-2.2659,-2.265,-2.2632,-2.2633,-2.2602,-2.2614,-2.2598,-2.2634,-2.2657,-2.2656,-2.2663,-2.2635,-2.2735,-2.2746,-2.2755,-2.2787,-2.28,-2.2644,-2.2643,-2.2643,-2.2642,0,-2.2798,-2.281,-2.2837,-2.2821,-2.2822,-2.2846,-2.2805,-2.2811,-2.2781,-2.2757,-2.2783,-2.2762,-2.2759,-2.2765,-2.2736,-2.2798,-2.2782,-2.2744,-2.2691,-2.2775,-2.2805,-2.2817,-2.2651,-2.2649,-2.2648,-2.2647,0,0,-2.2947,-2.2906,-2.2916,-2.2909,-2.2883,-2.2892,-2.2915,-2.2912,-2.2919,-2.2909,-2.2928,-2.2938,-2.2903,-2.2899,-2.2868,-2.289,-2.2967,-2.285,-2.2849,-2.2874,-2.3035,-2.3064,-2.3079,-2.2941,-2.2943,-2.2945,-2.3037,0,-2.3037,-2.3072,-2.3032,-2.3077,-2.3088,-2.303,-2.305,-2.3037,-2.3016,-2.3023,-2.2999,-2.3007,-2.296,-2.2958,-2.2977,-2.2953,-2.2999,-2.2946,-2.2959,-2.296,-2.2966,-2.3094,-2.3125,-2.3212,-2.3048,-2.305,-2.3051,0,-2.3147,-2.3142,-2.3188,-2.316,-2.3163,-2.3181,-2.3176,-2.3183,-2.3168,-2.3151,-2.3147,-2.3109,-2.3131,-2.3079,-2.3108,-2.3073,-2.3076,-2.3066,-2.3068,-2.3069,-2.3012,-2.3099,-2.3239,-2.3253,-2.3069,-2.3067,-2.3066,0,-2.3252,-2.3257,-2.3285,-2.3281,-2.3248,-2.3263,-2.3251,-2.3232,-2.3234,-2.3229,-2.323,-2.3229,-2.3228,-2.3229,-2.3192,-2.3158,-2.3227,-2.3172,-2.3215,-2.3216,-2.3232,-2.3232,-2.3376,-2.3233,-2.3233,-2.3233,-2.3232,0,-2.3357,-2.3388,-2.3332,-2.335,-2.3383,-2.3336,-2.3371,-2.3352,-2.3337,-2.3351,-2.3301,-2.3315,-2.3266,-2.3275,-2.3247,-2.3276,-2.3276,-2.3264,-2.3256,-2.3269,-2.3271,-2.3271,-2.3264,-2.3236,-2.3235,-2.3235,-2.3234,0,-2.3481,-2.3445,-2.3472,-2.3439,-2.3432,-2.3458,-2.343,-2.3446,-2.3421,-2.3439,-2.3441,-2.3402,-2.3411,-2.3374,-2.3377,-2.3358,-2.3402,-2.3384,-2.3408,-2.3402,-2.3448,-2.3445,-2.3598,-2.3616,-2.3461,-2.3462,-2.3463,0,-2.3551,-2.3573,-2.3543,-2.3549,-2.3538,-2.3548,-2.3549,-2.3504,-2.3508,-2.3492,-2.351,-2.3515,-2.3516,-2.3532,-2.3505,-2.3507,-2.3489,-2.3542,-2.3489,-2.3502,-2.3491,-2.3491,-2.3494,-2.3554,-2.3556,-2.3558,-2.3559,0,-2.368,-2.3661,-2.3664,-2.3661,-2.3664,-2.366,-2.3653,-2.366,-2.3612,-2.3619,-2.3627,-2.3628,-2.363,-2.3636,-2.3632,-2.362,-2.3583,-2.3576,-2.3586,-2.36,-2.3613,-2.3608,-2.3439,-2.3573,-2.3571,-2.357,-2.357,-2.3569,-2.3779,-2.3797,-2.3779,-2.3784,-2.3774,-2.3768,-2.3782,-2.3758,-2.3764,-2.3762,-2.3736,-2.3749,-2.3734,-2.3725,-2.3717,-2.3728,-2.3703,-2.3717,-2.3721,-2.3726,-2.3734,-2.3611,-2.3727,-2.3726,-2.3726,-2.3726,-2.3725,0,-2.3906,-2.3892,-2.3897,-2.3889,-2.3894,-2.3856,-2.3847,-2.3854,-2.3866,-2.3855,-2.3857,-2.3867,-2.3872,-2.3845,-2.3847,-2.3861,-2.3844,-2.3863,-2.3862,-2.3861,-2.3756,-2.3747,-2.3877,-2.3877,-2.3877,-2.3877,-2.3877,-2.3877,-2.3973,-2.4001,-2.398,-2.4003,-2.3989,-2.4001,-2.3999,-2.3994,-2.3985,-2.3998,-2.4002,-2.3984,-2.3967,-2.3968,-2.3972,-2.3964,-2.3967,-2.3993,-2.398,-2.3882,-2.3868,-2.3854,-2.3846,-2.3994,-2.3994,-2.4083,-2.4084,-2.4085]},{"header":{"parameterUnit":"m.s-1","parameterCategory":1,"la1":30.2991,"la2":30.254,"lo1":-89.0895,"lo2":-89.0444,"dy":0.0017,"dx":0.0017,"nx":28,"ny":28,"refTime":"2024-08-10T15:00:00:Z","depth":0,"parameterNumber":3,"parameterNumberName":"V-component_of_WINDS"},"data":[0,0,0,0,0,0,0,0,0,0,0,0,0,0,0,0,0,0,0,0,0,0,0,0,0,0,0,0,0,0,0,0,0,0,0,0,0,0,0,0,0,0,0,0,0,0,0,0,0,0,0,0,0,0,0,0,0,0,-1.2317,-1.2317,0,-1.2339,-1.2339,-1.234,-1.2321,-1.232,-1.2319,-1.2318,-1.234,-1.2342,-1.2343,0,0,0,0,0,0,0,0,0,0,0,0,0,-1.2257,-1.2258,-1.2317,-1.2317,-1.2317,-1.2339,-1.2339,-1.234,-1.2321,-1.232,-1.2319,-1.2318,-1.234,-1.2341,-1.2343,0,0,0,0,0,0,0,0,0,0,0,0,0,-1.2281,-1.2258,-1.2317,-1.2311,-1.231,-1.2339,-1.2339,-1.234,-1.2321,-1.232,-1.2319,-1.2318,-1.2339,-1.2341,-1.2343,-1.2379,0,0,-1.2349,-1.235,0,0,0,0,0,0,0,0,-1.228,-1.2283,-1.2311,-1.2311,-1.2311,-1.2326,-1.2326,-1.2353,-1.2321,-1.2317,-1.2318,-1.2317,-1.2336,-1.2339,-1.2345,-1.238,-1.2381,-1.2349,-1.2351,-1.2351,-1.2352,0,0,0,0,0,0,0,-1.2278,-1.2282,-1.2326,-1.2312,-1.2311,-1.2306,-1.2309,-1.2331,-1.2333,-1.2317,-1.2316,-1.2319,-1.2336,-1.2343,-1.2346,-1.2381,-1.2349,-1.2351,-1.2352,-1.2353,-1.2445,-1.2446,0,0,0,0,0,0,-1.2277,-1.2281,-1.2325,-1.2326,-1.2292,-1.2308,-1.2311,-1.2322,-1.2333,-1.2333,-1.232,-1.2318,-1.2341,-1.2343,-1.2346,-1.2389,-1.2351,-1.2353,-1.2354,-1.2444,-1.2445,-1.2447,0,0,0,0,0,0,-1.2276,-1.2281,-1.2324,-1.2303,-1.2308,-1.2311,-1.2324,-1.2323,-1.2331,-1.2335,-1.2335,-1.2327,-1.234,-1.2344,-1.2371,-1.2389,-1.2354,-1.2356,-1.2442,-1.2444,-1.2446,-1.2474,0,0,0,0,0,0,-1.2274,-1.2281,-1.2295,-1.2304,-1.231,-1.2349,-1.2325,-1.2325,-1.2334,-1.2332,-1.2342,-1.2342,-1.2339,-1.2368,-1.2373,-1.2391,-1.2358,-1.2441,-1.2443,-1.2446,-1.2471,-1.2476,-1.2481,0,0,0,0,0,-1.2272,-1.2302,-1.2296,-1.2301,-1.2327,-1.235,-1.2353,-1.235,-1.2336,-1.235,-1.2352,-1.2342,-1.2386,-1.2371,-1.2376,-1.2396,-1.244,-1.2443,-1.2445,-1.2469,-1.2475,-1.2481,0,0,0,0,0,0,-1.2295,-1.2303,-1.2296,-1.233,-1.2339,-1.2347,-1.2364,-1.2356,-1.237,-1.2367,-1.2362,-1.2364,-1.2393,-1.2396,-1.2379,-1.243,-1.2411,-1.2415,-1.2427,-1.2433,-1.2437,-1.2436,-1.2359,0,0,0,0,0,-1.2304,-1.2322,-1.2328,-1.2356,-1.2362,-1.2362,-1.2372,-1.2368,-1.2378,-1.2382,-1.2386,-1.2395,-1.2411,-1.2422,-1.2437,-1.2471,-1.2473,-1.2487,-1.2492,-1.2495,-1.2499,-1.2517,-1.2524,-1.2456,-1.2456,-1.2456,0,0,-1.2323,-1.2329,-1.2341,-1.2361,-1.2368,-1.2387,-1.2366,-1.2386,-1.24,-1.2384,-1.2411,-1.2414,-1.2424,-1.2455,-1.2469,-1.2459,-1.2518,-1.2499,-1.2502,-1.2504,-1.2521,-1.2527,-1.2533,-1.2458,-1.2458,-1.2458,0,0,-1.2366,-1.2373,-1.2398,-1.2405,-1.2416,-1.2416,-1.2421,-1.243,-1.2432,-1.2458,-1.2447,-1.2462,-1.249,-1.2498,-1.2505,-1.255,-1.2541,-1.2555,-1.258,-1.2598,-1.2603,-1.2608,-1.2625,-1.263,-1.2559,-1.2559,-1.2559,0,-1.2388,-1.2416,-1.2411,-1.2433,-1.2442,-1.2428,-1.2453,-1.246,-1.2475,-1.2482,-1.2471,-1.2505,-1.2511,-1.2543,-1.2554,-1.256,-1.2567,-1.2555,-1.2603,-1.2608,-1.2612,-1.2628,-1.2634,-1.256,-1.256,-1.256,-1.256,0,-1.2442,-1.2462,-1.248,-1.2495,-1.2506,-1.2529,-1.2527,-1.2539,-1.2534,-1.2535,-1.2561,-1.2567,-1.2583,-1.259,-1.2586,-1.2622,-1.2616,-1.2604,-1.2584,-1.262,-1.2635,-1.2641,-1.2563,-1.2562,-1.2562,-1.2561,0,0,-1.2502,-1.2514,-1.2521,-1.2527,-1.2538,-1.2552,-1.2574,-1.259,-1.26,-1.261,-1.2628,-1.2652,-1.264,-1.2649,-1.2645,-1.266,-1.2696,-1.2646,-1.2646,-1.2656,-1.2736,-1.2746,-1.2753,-1.2689,-1.269,-1.2691,-1.2735,0,-1.2547,-1.2586,-1.2581,-1.2618,-1.2636,-1.2623,-1.2642,-1.265,-1.2651,-1.2665,-1.2666,-1.2683,-1.2667,-1.2672,-1.2687,-1.2688,-1.2712,-1.2685,-1.2706,-1.2707,-1.2705,-1.276,-1.2771,-1.2812,-1.2741,-1.2742,-1.2743,0,-1.2604,-1.2617,-1.2656,-1.2663,-1.267,-1.2687,-1.2701,-1.2715,-1.2724,-1.2723,-1.2732,-1.2725,-1.2746,-1.2726,-1.2755,-1.2737,-1.2745,-1.2747,-1.2748,-1.2751,-1.2728,-1.2765,-1.2825,-1.2832,-1.2752,-1.2751,-1.275,0,-1.2645,-1.2671,-1.2698,-1.2704,-1.2712,-1.2725,-1.2729,-1.2736,-1.2746,-1.2757,-1.2764,-1.2777,-1.2785,-1.2796,-1.2792,-1.2777,-1.2822,-1.2801,-1.2822,-1.2823,-1.2833,-1.2833,-1.2897,-1.2837,-1.2837,-1.2837,-1.2837,0,-1.2696,-1.272,-1.2716,-1.2733,-1.2759,-1.2753,-1.2779,-1.2782,-1.2788,-1.2805,-1.2794,-1.2809,-1.2803,-1.2818,-1.2815,-1.284,-1.2843,-1.2843,-1.2842,-1.2845,-1.2845,-1.2851,-1.2848,-1.2839,-1.2838,-1.2838,-1.2838,0,-1.2746,-1.2744,-1.2773,-1.2778,-1.278,-1.28,-1.2804,-1.2819,-1.2819,-1.284,-1.2844,-1.2844,-1.286,-1.2858,-1.2876,-1.2874,-1.2905,-1.29,-1.2903,-1.2902,-1.2923,-1.2922,-1.2994,-1.3003,-1.2937,-1.2938,-1.2938,0,-1.2779,-1.2797,-1.2805,-1.2815,-1.282,-1.2837,-1.2847,-1.2841,-1.2851,-1.2862,-1.2876,-1.2891,-1.2904,-1.2931,-1.2932,-1.2946,-1.2942,-1.2966,-1.2944,-1.2946,-1.2943,-1.2942,-1.2944,-1.2971,-1.2972,-1.2972,-1.2973,0,-1.2838,-1.2836,-1.285,-1.2865,-1.2876,-1.2887,-1.2896,-1.2905,-1.29,-1.2912,-1.2929,-1.2939,-1.2958,-1.2974,-1.2986,-1.299,-1.2981,-1.2979,-1.2985,-1.2988,-1.2989,-1.299,-1.2915,-1.2978,-1.2978,-1.2977,-1.2977,-1.2977,-1.2881,-1.2897,-1.2905,-1.2921,-1.2927,-1.2936,-1.2951,-1.2952,-1.2966,-1.2981,-1.2977,-1.2996,-1.3003,-1.3019,-1.3024,-1.3039,-1.303,-1.3039,-1.3041,-1.3043,-1.3046,-1.2986,-1.3041,-1.3041,-1.3041,-1.3041,-1.3041,0,-1.294,-1.2944,-1.2959,-1.2973,-1.2985,-1.2975,-1.2985,-1.2996,-1.3013,-1.3021,-1.3033,-1.3052,-1.3067,-1.3069,-1.3083,-1.3094,-1.309,-1.3098,-1.3098,-1.3099,-1.3053,-1.3047,-1.3101,-1.3101,-1.3101,-1.3101,-1.3101,-1.3101,-1.2972,-1.2998,-1.2997,-1.3026,-1.3029,-1.3048,-1.3055,-1.3063,-1.3069,-1.3091,-1.3103,-1.3104,-1.3109,-1.3124,-1.3137,-1.3137,-1.3143,-1.3152,-1.3151,-1.3108,-1.3102,-1.3096,-1.3091,-1.3154,-1.3154,-1.3196,-1.3196,-1.3196]}]]